カタログに戻る

COSMOS 2251 DEB

運用中LEO
NORAD 33994·DEBRIS·🇷🇺 Russia

打ち上げ Jun 16, 1993 から Plesetsk Cosmodrome

Loading…

次のパス (今後24時間)

TLE

最新Source: Space-Track

元期: Sep 14, 2026, 09:16 UTC

1 33994U 93036GD  26257.38658580  .00000158  00000-0  56822-4 0  9995
2 33994  74.0437  40.2356 0022083 109.2154 281.0221 14.41366463923910

AllMySatでCOSMOS 2251 DEBをリアルタイム追跡

Download on the App Store